Wind_Speed
18 16 16 18 19 19 18 19 20 19 19 19 20 20 19 18 17 16 16 15 15 15 15 16 17 17 16 16 17 17 17 17 17 17 17 15 13 12 11 10 10 11 13 13 14 15 14 14 15 15 14 13 14 13 12 13 14 15 16 16 17 19 22 19 12 10 16 18 17 19 17 14 13 13 12 12 15 18 20 23 24 24 25 27 29
18 17 17 17 18 18 19 20 20 19 20 20 20 20 19 18 18 17 16 15 15 15 15 15 16 16 16 16 17 18 18 18 18 17 15 12 12 12 11 11 12 13 14 14 14 15 15 16 17 17 17 15 15 15 13 12 13 15 15 15 18 20 21 21 16 10 12 18 18 17 15 14 16 15 14 14 16 19 21 21 21 22 24 26 28
17 17 17 17 18 18 19 19 19 19 20 20 20 19 19 19 18 18 17 16 15 14 14 15 15 15 15 15 17 18 18 18 17 14 12 12 12 13 13 14 14 14 15 15 15 15 16 16 17 17 18 17 17 17 15 13 12 14 15 15 17 19 19 20 18 13 12 17 18 16 14 15 17 16 15 15 16 19 22 23 23 22 23 23 25
17 17 17 17 18 19 20 20 20 21 21 21 19 18 18 18 18 18 18 17 16 14 14 14 15 15 15 16 17 18 17 16 15 12 11 12 12 13 14 15 15 15 15 16 16 16 16 17 17 17 17 18 18 19 18 15 13 13 14 16 17 18 18 19 20 18 16 16 17 16 15 15 17 16 15 16 17 18 20 22 24 25 25 24 23
16 16 17 18 19 21 21 21 22 21 21 21 20 19 18 18 18 18 19 18 17 17 16 15 16 16 16 16 16 15 14 15 14 13 12 12 11 13 14 15 16 17 17 17 16 16 17 17 17 17 17 18 18 19 19 18 15 14 14 15 16 17 17 18 20 20 19 18 17 17 17 17 17 17 16 16 17 18 18 19 21 23 24 24 24
16 17 18 19 21 21 21 21 21 21 21 21 21 20 19 19 18 18 18 18 18 18 18 17 17 16 16 14 12 12 13 14 14 15 14 13 12 13 15 16 18 18 17 17 16 16 16 17 17 17 17 18 18 18 18 18 17 16 16 17 16 16 17 18 18 19 20 19 19 19 17 17 17 17 15 15 16 17 17 17 19 21 22 22 24
16 18 19 20 21 21 20 20 20 21 21 20 20 20 19 19 19 18 18 18 18 19 19 18 17 15 14 12 11 12 14 16 17 18 16 15 14 14 16 17 18 18 17 16 16 16 16 16 16 16 16 17 18 17 16 16 16 16 16 16 16 17 17 17 16 17 19 19 19 18 17 17 17 17 17 16 16 17 18 16 16 19 21 23 25
18 18 19 20 20 20 20 20 20 20 20 20 20 20 20 19 19 19 18 18 19 19 18 17 16 14 12 12 13 15 17 19 21 20 18 17 16 16 16 16 16 17 16 16 16 16 16 15 15 15 15 16 15 15 14 14 14 16 15 14 14 16 17 17 16 16 17 17 17 18 17 16 17 18 18 16 15 18 21 19 19 21 22 23 24
18 18 19 19 19 19 19 19 20 20 20 21 21 21 20 20 20 20 20 19 19 18 17 16 15 13 12 14 16 18 20 22 22 20 19 19 18 16 15 15 16 17 16 16 16 16 16 16 14 14 15 15 14 14 14 13 12 13 14 13 13 14 15 15 15 16 15 15 15 16 16 15 16 16 17 17 18 21 21 19 21 25 24 23 24
17 16 18 18 17 17 18 18 19 19 19 20 21 21 21 21 21 20 20 20 19 18 17 17 15 13 14 16 18 21 23 23 22 20 19 20 19 17 15 14 16 17 17 17 17 17 17 16 14 14 15 16 15 14 13 12 12 11 12 12 12 13 15 15 15 15 14 13 14 14 13 13 15 16 17 19 22 22 19 18 21 23 20 18 21
17 15 16 17 17 17 17 18 20 20 18 18 19 20 20 20 20 20 20 20 20 19 19 18 15 14 15 17 19 22 24 25 24 22 21 20 20 19 16 15 15 16 17 18 18 19 18 17 15 15 17 17 15 14 14 13 14 13 12 11 10 10 13 14 14 14 14 14 15 15 13 14 17 18 19 20 20 20 19 19 20 19 16 12 12
17 16 16 17 17 18 17 18 19 20 18 18 19 19 19 20 19 19 19 20 20 21 21 18 14 13 15 17 20 23 24 25 26 26 25 23 21 20 18 17 16 16 18 19 20 20 19 18 17 16 17 18 15 15 16 15 16 16 16 15 12 10 10 11 12 13 14 14 15 15 15 16 16 17 19 20 20 20 20 20 21 20 18 15 12
16 17 17 17 17 18 18 18 19 20 18 19 19 19 19 19 19 19 20 20 20 21 21 20 15 12 15 19 21 23 24 26 27 27 27 25 23 20 18 17 17 17 18 19 20 20 19 20 19 18 19 17 14 16 19 19 20 19 18 18 16 13 11 10 10 10 12 13 15 17 17 17 17 18 19 19 18 18 18 20 22 21 19 17 17
16 16 16 16 17 17 17 18 19 19 19 19 19 19 19 19 19 20 20 21 22 21 21 21 17 13 16 20 20 21 23 25 27 29 28 24 22 21 18 17 17 18 18 20 20 19 19 20 20 20 20 15 14 19 23 23 24 24 22 21 20 17 14 11 10 10 10 11 13 16 17 16 18 19 19 18 18 18 18 20 22 22 21 20 20
16 16 15 15 16 17 16 17 18 18 19 19 18 18 19 19 19 19 19 19 20 20 19 20 18 15 16 19 19 18 18 23 27 29 28 23 21 23 22 19 20 21 21 21 20 19 19 19 19 20 20 16 17 23 25 24 24 25 24 24 22 21 18 13 12 11 10 9 9 12 13 13 14 16 16 16 18 19 19 21 22 21 23 24 23
15 15 15 16 17 16 15 16 17 17 17 17 17 17 18 19 19 19 19 19 18 17 17 18 18 16 16 17 18 15 15 20 25 28 28 23 21 25 25 21 22 24 24 23 20 19 19 19 18 20 21 20 22 25 24 22 22 23 23 24 24 23 21 16 12 12 12 12 12 12 13 13 12 13 13 14 15 17 17 19 21 20 19 19 18
14 15 15 16 16 14 14 15 15 16 16 15 16 16 17 18 18 18 19 19 18 16 14 15 16 16 16 16 17 16 15 18 22 27 27 23 22 25 25 22 22 24 25 23 20 18 18 17 17 19 22 24 25 24 21 19 19 20 20 21 22 23 23 20 16 14 14 15 15 15 14 14 13 12 12 12 13 15 14 15 19 19 16 12 11
13 14 15 17 16 13 13 13 13 14 14 14 15 15 16 17 16 16 16 17 18 16 14 13 14 15 16 16 15 16 16 16 20 25 25 22 21 24 24 23 22 24 25 22 18 17 18 17 16 18 23 25 23 19 15 14 14 15 17 17 18 20 23 23 21 18 17 17 16 15 14 14 13 12 12 11 11 13 13 16 17 16 14 12 11
12 15 17 18 14 11 11 12 11 12 13 12 13 13 14 14 14 15 15 15 16 17 15 14 13 13 16 17 16 17 17 16 18 23 24 21 20 22 24 23 23 24 24 21 18 18 18 17 17 19 22 23 22 20 16 14 15 17 17 17 16 19 21 22 22 21 20 19 18 16 15 14 12 12 11 10 10 11 14 17 17 15 15 17 17
13 16 17 14 11 10 11 11 9 10 12 12 12 12 13 13 14 16 16 15 15 16 16 16 15 14 15 18 19 18 18 17 18 22 23 21 20 22 24 23 22 23 23 21 20 20 18 18 19 21 22 22 22 22 19 17 19 20 20 19 19 19 19 18 17 17 17 17 17 16 15 13 12 12 11 10 10 11 13 15 16 16 16 18 20
14 16 13 10 11 12 12 9 8 9 11 12 12 12 12 13 14 15 16 16 16 16 17 17 17 17 17 18 19 19 18 17 19 21 22 21 21 23 24 24 22 22 21 21 21 20 18 18 19 21 22 20 20 22 20 20 22 23 21 20 19 17 16 17 16 15 14 13 14 14 14 13 12 12 11 10 10 10 11 12 14 16 17 18 20
15 14 10 9 12 14 12 8 8 9 11 12 12 12 11 12 13 14 15 15 16 16 17 17 17 18 19 19 18 19 20 20 20 21 22 22 21 22 24 24 23 21 20 21 21 20 18 18 18 20 21 19 19 22 23 23 25 25 22 21 20 18 16 16 17 17 17 17 15 14 14 14 13 13 12 12 11 11 10 10 11 13 15 18 20
14 13 10 9 12 15 13 10 8 8 9 10 10 9 10 10 11 12 13 14 14 15 16 17 18 18 18 18 18 20 22 23 23 23 23 23 23 22 23 24 23 21 20 21 21 19 19 19 19 20 21 20 19 22 25 27 27 27 25 24 23 23 21 19 19 19 19 20 19 17 18 18 18 18 18 16 13 11 10 9 9 11 12 15 19
12 11 10 10 12 14 14 12 10 8 7 7 7 7 8 8 9 11 12 12 12 13 15 17 17 17 17 17 18 20 22 24 24 23 23 23 23 22 22 23 23 22 21 20 20 18 18 19 19 19 21 22 21 21 24 26 27 28 28 26 26 26 25 22 21 19 17 18 17 16 18 19 20 21 22 21 17 12 8 7 7 8 9 11 14
10 9 9 11 12 13 12 12 12 10 7 5 6 6 7 7 8 9 10 10 10 11 13 15 15 15 15 16 17 19 21 22 23 22 21 22 22 23 23 23 23 22 21 19 19 18 18 18 18 18 20 23 22 21 22 24 25 26 28 27 26 26 26 22 20 18 17 17 16 15 18 21 21 21 21 21 20 17 13 11 9 7 6 9 11
9 8 9 11 11 11 11 12 13 12 8 7 8 9 9 8 7 7 8 9 9 10 11 14 14 14 14 15 16 18 20 21 21 20 19 20 21 23 23 23 22 22 21 19 18 18 17 18 18 19 20 22 23 22 21 22 23 25 27 29 27 26 26 25 22 19 18 17 16 16 18 20 20 20 21 21 22 23 22 20 17 13 9 8 9
9 9 10 10 9 9 8 11 13 12 10 11 13 12 11 9 8 6 7 7 7 8 10 13 13 13 14 14 16 18 20 21 21 19 18 19 20 21 22 22 21 21 21 20 19 18 17 16 17 18 18 21 23 23 22 23 24 24 25 28 28 26 25 24 23 21 19 18 17 17 19 20 20 21 22 21 21 23 24 23 22 20 16 11 8
10 11 11 8 8 8 6 8 10 11 12 14 15 12 10 9 8 7 7 7 5 6 9 11 12 12 13 13 15 18 20 21 20 18 17 17 18 19 21 22 22 22 21 20 20 19 17 17 17 17 18 19 22 25 25 25 25 26 25 26 27 27 26 27 27 26 23 21 19 19 21 21 21 22 21 20 20 23 24 24 22 22 20 15 10
8 11 11 7 6 7 7 7 8 11 13 13 12 9 8 8 7 7 7 6 5 3 6 10 13 13 13 14 15 17 20 21 18 15 15 14 14 16 19 21 21 21 19 18 19 21 20 19 19 19 18 18 20 24 25 24 24 27 26 25 26 27 27 29 29 27 24 23 22 21 21 21 22 22 21 20 21 23 24 23 22 22 22 17 13
7 10 10 7 5 7 8 6 8 10 10 9 8 8 9 8 7 7 7 6 5 4 4 8 12 13 14 16 16 17 20 20 15 12 11 11 10 12 16 18 19 20 19 18 19 21 21 20 20 20 19 18 18 20 22 22 22 24 25 25 25 25 25 27 28 25 23 22 21 20 20 20 21 22 21 20 21 23 24 23 22 21 21 18 14
8 9 9 7 6 7 7 6 7 8 8 7 7 9 10 10 8 8 8 7 6 6 5 7 12 14 13 16 19 20 20 18 13 9 10 11 10 9 12 15 16 17 20 21 20 20 19 19 19 19 19 18 17 17 19 20 20 21 23 24 25 25 26 27 28 25 22 21 21 19 19 20 20 20 21 19 20 22 23 23 23 21 20 19 16
8 9 8 6 6 6 6 6 7 6 6 6 7 8 9 10 10 10 9 8 8 8 5 7 12 15 14 15 19 21 21 17 12 9 9 10 9 7 9 12 13 14 17 20 20 19 18 17 17 17 18 18 17 17 18 19 19 20 21 22 24 26 28 28 28 25 22 22 21 20 20 20 20 19 20 19 19 20 21 22 23 22 20 19 18
8 8 6 5 6 7 6 7 7 6 6 7 7 7 9 9 9 10 10 10 11 9 5 7 11 15 16 15 17 19 20 17 12 8 9 11 10 8 9 10 11 12 14 16 18 18 17 16 16 16 16 17 17 17 18 19 19 20 21 22 23 25 27 28 28 27 24 23 22 20 20 21 20 19 19 19 18 18 19 19 21 21 20 19 19
6 5 4 5 8 8 7 7 8 7 8 8 7 9 10 9 8 10 11 11 13 11 6 8 11 13 13 14 14 15 17 17 13 9 9 12 12 11 11 10 9 9 10 12 14 15 16 15 14 14 15 15 16 17 18 19 20 20 20 22 24 26 27 28 29 29 27 25 24 22 21 21 21 20 20 19 18 17 18 18 19 19 18 17 18
5 5 5 7 9 9 7 7 8 9 10 9 9 11 11 9 7 9 10 12 13 10 7 7 10 11 11 13 14 14 14 16 16 12 10 11 13 12 12 13 12 10 10 10 10 11 13 13 12 13 14 14 16 17 17 18 20 19 19 21 24 26 28 30 30 30 29 28 26 24 22 22 22 21 20 19 18 17 18 19 18 17 16 16 17
6 6 8 8 9 10 7 6 7 10 12 12 11 10 10 8 7 7 9 11 11 9 7 7 9 10 10 11 12 12 13 15 17 16 13 12 14 14 14 15 15 13 12 11 10 10 10 11 12 12 13 14 15 17 17 17 17 16 17 20 24 25 26 28 29 30 30 29 28 27 26 25 25 23 21 19 18 17 18 19 19 18 17 16 15
8 8 10 10 9 10 9 5 5 8 11 12 12 11 10 8 6 6 8 10 9 7 6 6 8 10 11 10 10 11 12 13 16 17 15 13 14 16 17 17 16 15 14 14 12 10 11 12 12 13 13 13 13 14 15 14 14 15 16 19 23 24 25 26 28 29 29 28 28 29 28 27 26 24 20 19 18 17 18 19 19 18 18 18 16
8 9 10 11 11 9 7 5 4 5 7 10 11 10 9 7 6 6 6 7 7 5 4 5 7 9 10 9 9 11 13 14 14 15 16 15 14 16 18 19 18 18 18 17 15 13 13 14 14 14 15 14 13 13 13 12 13 14 16 19 23 25 26 27 28 29 30 29 29 29 28 28 27 24 20 18 18 18 19 19 19 19 19 19 17
8 8 10 12 10 5 2 3 3 4 5 8 8 8 8 8 7 7 6 5 6 5 2 4 5 7 7 7 7 9 12 14 12 12 13 14 14 15 17 18 19 19 19 19 18 15 15 16 15 15 15 15 15 14 12 11 12 14 17 20 23 25 26 27 28 29 29 29 29 29 28 28 27 25 21 17 16 17 18 19 19 18 18 19 19
7 9 12 12 6 1 2 2 3 3 4 7 7 7 7 7 7 6 6 5 6 6 2 3 1 4 5 5 6 9 10 11 10 9 10 10 12 14 15 16 16 17 18 17 17 16 16 15 15 15 15 15 16 13 10 10 12 15 18 20 22 23 25 25 27 28 28 28 29 29 29 28 26 25 24 20 16 17 18 18 19 19 18 18 19
8 9 12 9 1 3 1 2 3 3 4 7 8 7 7 7 7 7 7 6 6 7 4 2 2 2 3 2 4 7 9 8 7 7 9 9 9 11 13 13 14 15 15 14 14 14 14 14 14 14 14 15 14 12 10 10 13 15 18 20 22 23 24 25 26 27 27 28 29 28 28 27 25 23 22 21 19 19 21 20 21 22 21 20 19
8 9 11 5 4 5 4 4 3 4 6 8 9 9 9 9 9 9 9 8 6 7 5 1 2 1 1 2 2 5 7 7 6 5 7 8 8 9 10 11 11 12 13 13 13 13 12 12 13 13 14 14 12 10 10 11 13 16 19 20 21 23 24 25 26 27 28 29 28 27 27 27 25 23 22 21 19 20 21 21 22 24 24 24 22
8 8 8 3 6 8 8 6 6 7 8 10 12 12 12 12 12 13 13 12 9 7 4 2 2 1 1 3 2 3 5 5 5 4 5 6 6 7 9 10 10 11 11 12 12 12 12 12 12 13 13 12 10 9 10 11 13 16 19 21 21 22 24 25 26 27 27 28 28 27 27 27 26 25 24 22 20 19 19 20 22 25 25 25 24
8 7 6 3 7 11 11 9 9 10 11 12 14 14 14 14 15 15 16 15 13 10 6 4 2 2 3 5 3 1 3 4 3 3 4 6 7 8 9 10 10 10 11 12 12 12 12 12 12 13 13 11 9 9 10 11 14 17 20 21 22 23 24 26 27 27 27 27 26 25 25 26 26 26 24 22 19 18 18 20 22 24 24 23 23
7 8 8 6 7 11 13 13 14 14 14 14 15 14 13 13 14 15 16 17 17 14 10 6 4 3 4 5 3 0 3 3 2 2 5 7 8 8 9 10 10 10 11 11 12 12 12 12 13 13 12 10 9 9 10 12 16 18 19 21 22 24 26 27 27 27 27 25 23 22 22 23 24 23 21 19 18 18 19 21 23 23 22 21 21
9 10 9 9 10 13 14 16 19 19 18 17 16 14 12 12 13 14 14 15 16 15 12 9 5 4 5 5 2 1 2 2 2 3 5 7 8 8 8 8 9 11 12 11 11 11 12 12 12 12 10 8 8 9 11 14 17 18 19 21 23 24 26 26 26 27 26 23 21 20 19 19 20 19 17 17 18 18 19 21 23 22 20 19 20
11 11 10 10 12 14 16 18 20 20 20 18 16 13 12 12 13 13 12 12 13 12 11 9 6 5 6 5 2 1 1 1 1 2 5 6 7 7 7 8 10 11 11 11 10 10 11 11 11 11 9 8 8 10 12 16 18 18 19 21 24 25 27 27 27 27 26 24 22 20 18 17 18 18 17 17 19 20 21 23 24 22 18 18 21
12 13 11 10 12 14 17 19 20 21 21 18 14 11 11 12 13 13 13 13 13 11 9 7 6 6 6 5 3 2 1 1 1 2 4 4 5 6 7 9 11 10 10 10 10 10 10 10 10 10 9 8 9 11 13 16 17 17 19 22 25 26 29 30 29 28 26 24 21 18 15 15 16 17 16 17 19 21 23 24 23 19 16 18 21
12 13 12 12 14 17 19 22 24 25 22 16 11 10 12 13 13 13 13 13 12 11 8 7 7 8 8 6 4 2 2 2 2 1 2 3 3 5 8 9 9 9 8 9 9 9 9 9 10 10 10 9 10 12 14 15 16 17 20 23 26 29 31 31 29 25 23 21 17 14 12 13 15 16 17 18 19 21 21 21 18 15 16 19 22
11 12 12 14 17 20 22 25 26 23 16 10 10 12 13 12 12 12 12 11 11 10 8 6 7 9 8 6 4 3 2 2 2 2 2 2 3 6 7 8 8 7 7 8 8 8 8 10 11 11 11 10 11 13 14 15 16 18 21 24 28 31 31 29 25 22 19 17 14 12 11 13 15 16 16 18 18 18 18 16 14 14 17 19 21
10 11 14 17 19 21 23 23 19 13 8 8 10 11 11 10 10 10 10 9 9 8 7 6 7 9 8 5 3 2 2 3 3 3 2 1 3 6 6 6 7 7 7 7 7 8 9 10 11 11 10 11 12 13 14 15 18 20 23 26 29 30 27 23 22 22 19 14 12 13 13 14 15 15 14 15 15 15 15 14 13 14 17 19 19
Wind_Direction
24 25 24 21 19 19 18 14 12 15 19 17 14 12 10 9 8 5 3 3 2 1 1 360 356 354 357 359 0 357 353 352 351 348 346 348 353 356 357 360 3 1 358 353 350 345 336 329 331 334 333 325 319 312 298 291 286 274 260 253 251 250 246 241 238 253 259 254 251 259 268 267 258 254 249 240 229 222 221 223 226 230 233 235 238
23 22 22 21 21 20 16 13 14 17 17 14 11 10 8 6 4 3 2 2 3 2 1 360 356 354 355 357 358 358 357 353 348 346 348 352 355 359 2 1 357 353 352 350 347 346 341 334 332 335 332 324 322 321 311 299 290 279 268 256 249 249 248 244 240 246 263 264 264 266 264 255 253 253 249 244 235 226 222 222 225 230 233 235 237
22 22 24 25 23 20 18 18 19 18 16 13 10 9 7 3 1 360 360 1 2 2 2 0 358 355 356 357 358 360 359 353 349 352 360 2 360 360 359 357 355 353 351 348 344 343 344 341 339 340 335 325 321 322 317 306 298 289 281 271 263 262 260 254 248 247 260 269 269 266 260 253 253 255 252 248 241 234 230 229 230 230 230 232 236
23 24 27 26 22 20 20 17 15 15 14 11 8 7 6 4 2 2 3 4 5 6 6 3 0 359 359 0 2 3 0 356 357 2 4 0 358 359 358 355 353 351 348 347 346 345 345 345 343 343 341 333 325 322 319 310 303 298 289 283 277 274 269 260 254 251 253 263 268 266 261 256 255 256 257 255 249 241 238 237 236 235 233 234 237
27 29 29 26 21 18 16 12 11 14 13 11 10 10 9 8 7 7 6 7 9 9 8 8 6 6 6 6 10 13 10 9 10 10 5 359 353 351 352 350 349 349 347 346 348 349 348 348 348 348 345 340 333 329 323 313 304 299 291 285 281 278 275 267 260 256 254 257 264 266 265 265 264 262 262 261 255 248 244 239 235 234 234 235 239
32 32 29 26 22 20 17 14 15 15 12 11 13 13 14 13 11 11 10 10 12 11 11 12 13 15 16 18 24 26 22 18 15 11 5 358 351 345 343 343 343 344 344 346 350 351 350 349 350 350 347 341 338 336 332 322 310 300 292 289 284 276 273 271 267 263 258 259 264 267 265 264 265 267 267 260 254 252 251 246 239 235 234 236 239
34 34 30 27 25 22 20 18 16 14 13 14 17 16 17 17 15 15 15 15 17 16 15 17 21 27 28 27 33 32 26 21 14 7 360 352 346 341 337 336 337 338 340 345 351 354 353 353 352 352 349 343 338 337 338 334 324 314 303 294 286 280 274 269 269 268 265 265 267 268 267 265 264 265 265 260 257 257 255 252 249 244 241 240 240
37 37 34 30 25 21 20 18 15 15 17 19 20 19 18 18 18 20 21 22 22 22 23 25 29 35 38 40 43 39 34 28 19 10 2 356 349 343 340 340 340 339 341 347 352 357 358 359 1 359 351 344 338 338 343 341 333 329 323 306 289 284 281 274 270 269 266 264 264 265 266 264 262 262 262 258 255 256 252 246 247 250 248 245 243
37 38 34 28 23 21 21 19 17 19 22 23 21 19 19 18 20 24 27 28 28 28 31 33 36 43 50 51 50 46 40 31 22 17 13 5 359 351 349 355 356 352 350 351 352 356 359 359 3 3 355 349 345 343 345 344 336 331 329 321 302 289 284 280 273 266 262 260 261 265 264 258 255 255 254 247 243 249 251 243 242 247 249 249 249
37 37 34 28 22 21 21 20 20 20 23 23 21 20 20 19 22 27 31 33 33 35 37 38 43 54 58 55 51 46 38 27 19 19 17 12 6 360 355 360 4 360 357 354 350 351 354 356 1 6 1 356 353 350 349 351 349 338 330 324 311 296 288 286 282 276 272 266 261 261 261 258 255 252 251 250 247 248 246 238 238 243 244 246 251
35 31 28 25 22 21 20 20 19 19 22 23 22 22 21 20 25 30 33 36 38 42 42 40 47 58 59 54 49 42 33 21 13 10 10 10 8 3 358 356 357 354 352 351 349 349 350 353 359 5 2 355 352 354 358 360 1 358 350 341 330 310 296 289 288 284 279 273 268 262 255 254 258 257 256 258 257 253 249 243 240 239 233 234 249
32 25 20 19 19 20 19 18 16 17 22 25 25 26 24 25 31 33 35 38 40 43 42 39 45 57 56 51 46 40 30 17 9 5 2 2 1 357 355 353 351 348 346 346 348 349 349 351 355 1 359 353 348 353 358 358 359 1 359 355 352 340 319 302 297 291 281 276 272 266 262 261 264 264 262 261 259 257 254 248 242 238 233 232 240
27 24 19 16 17 18 18 17 16 18 25 29 30 31 30 32 36 36 38 41 41 42 41 38 40 50 55 50 41 34 27 15 7 4 359 358 357 353 350 351 350 347 345 345 346 348 351 352 352 355 356 349 344 350 353 350 348 348 349 351 351 349 341 328 318 306 291 282 273 270 275 275 272 271 267 262 258 255 253 250 246 243 240 239 242
24 20 16 15 16 16 16 17 18 22 31 34 34 36 37 39 41 40 41 42 40 40 40 38 40 47 51 44 32 27 23 12 6 4 1 360 360 358 357 356 354 350 347 347 347 349 352 351 349 350 351 348 351 355 351 345 341 338 337 339 340 341 341 338 335 325 307 293 281 281 288 288 283 281 278 270 265 262 258 254 252 250 252 254 255
21 16 11 10 11 12 16 19 21 28 36 37 38 42 44 44 44 43 44 43 39 39 39 40 42 44 41 34 26 24 19 9 4 3 4 5 4 5 7 4 358 356 351 350 353 353 352 351 349 348 345 344 348 350 346 341 336 330 328 329 329 330 330 331 333 326 314 304 294 294 304 306 302 301 299 290 281 276 270 263 258 254 255 259 260
15 10 6 6 6 9 16 19 25 35 40 40 45 50 49 46 44 42 44 43 40 40 41 42 42 42 38 28 21 20 12 7 4 2 5 9 6 7 11 7 0 357 353 353 355 354 353 352 349 347 347 345 341 339 339 338 332 326 324 324 323 321 320 322 326 318 310 309 306 306 309 311 311 310 309 302 291 287 284 274 264 255 248 253 257
7 2 1 3 4 9 15 19 29 42 43 44 53 58 53 47 45 44 43 41 39 38 40 42 40 36 34 27 20 17 11 5 2 1 7 12 8 7 8 4 358 356 354 354 353 351 355 356 349 349 351 347 339 333 332 330 328 329 330 328 326 321 318 320 321 314 307 306 306 306 306 306 307 307 305 301 294 292 284 268 261 254 243 243 249
360 358 357 357 1 9 12 14 31 46 44 50 62 62 53 49 48 47 45 42 39 37 37 42 37 29 29 28 22 20 17 7 360 0 7 15 11 7 6 2 357 355 356 356 352 352 357 358 354 355 355 352 349 348 347 343 346 352 349 341 334 327 322 322 320 314 311 311 312 313 314 312 309 305 301 296 296 293 279 266 264 255 242 244 252
357 358 356 355 1 11 9 9 32 51 50 57 65 58 51 50 50 48 47 43 40 37 36 39 34 25 25 24 21 20 18 12 4 1 6 15 13 6 3 0 355 356 358 356 354 356 357 355 358 359 359 6 14 19 21 24 22 18 10 358 344 334 331 328 319 314 313 313 315 319 322 320 314 307 303 298 297 296 286 280 274 256 238 242 249
356 1 4 8 16 19 14 16 40 58 57 59 59 51 48 50 49 49 49 46 42 38 36 36 33 27 23 20 20 21 17 13 8 4 6 14 13 6 3 360 355 354 356 356 356 355 351 353 0 359 1 15 22 20 25 34 30 25 21 11 354 342 342 340 329 321 316 312 315 321 326 329 328 323 318 309 303 301 297 293 282 264 247 240 243
4 10 20 30 24 16 20 38 66 69 61 58 53 46 46 50 51 52 50 46 43 39 36 34 32 30 26 22 23 24 20 14 9 6 9 14 14 9 5 2 360 355 354 357 359 354 349 355 2 0 3 18 24 19 24 32 28 26 25 16 4 358 359 359 355 351 343 332 327 328 330 336 338 336 331 322 318 315 307 300 287 273 261 250 247
7 17 32 31 19 19 31 61 87 77 62 56 50 44 45 50 52 53 48 44 42 39 35 31 28 28 28 28 29 27 23 18 12 11 15 16 17 15 10 8 8 1 356 359 360 356 356 3 6 4 7 20 29 25 27 32 29 26 25 20 17 18 16 9 7 10 11 7 1 352 350 352 352 349 341 325 318 316 311 304 293 282 275 266 259
6 22 42 30 23 32 44 63 79 76 61 52 45 39 40 46 50 49 44 40 40 39 33 28 26 27 28 30 31 27 23 21 19 18 20 20 21 19 13 12 15 12 8 6 0 359 6 12 12 12 15 25 32 29 28 31 29 25 25 24 22 24 25 21 19 19 17 15 14 8 4 3 1 359 354 341 329 321 312 306 296 286 282 277 270
13 37 49 32 31 46 57 61 60 58 53 46 36 25 25 34 43 44 40 37 38 39 34 27 25 26 25 26 27 25 23 23 24 23 23 23 24 20 14 15 21 23 23 17 7 7 16 17 17 20 22 26 32 30 28 30 28 25 25 25 23 23 23 21 18 17 15 12 10 5 2 2 360 357 355 354 354 350 334 321 311 296 288 281 275
35 52 44 34 43 57 60 50 37 32 34 36 26 11 4 11 29 37 33 32 37 40 33 27 24 23 22 20 19 20 20 22 24 25 24 24 24 23 20 20 24 28 30 23 13 15 20 20 22 27 26 26 30 30 27 26 26 26 26 26 24 23 21 17 15 17 16 11 6 360 357 357 355 354 356 1 8 10 4 353 344 330 308 292 286
55 53 37 39 53 60 50 30 20 20 26 31 25 10 357 353 6 22 23 24 38 44 34 25 22 19 16 14 13 13 16 19 21 23 22 20 23 27 26 24 25 31 32 26 19 20 22 23 26 30 30 29 30 30 28 24 24 26 26 26 25 23 21 19 18 16 13 9 4 0 355 352 352 357 4 9 12 11 7 1 354 350 343 323 309
63 48 37 43 55 58 42 19 18 25 28 26 23 19 10 358 348 353 5 13 35 50 36 22 18 14 11 10 9 9 12 16 18 19 18 16 20 27 28 25 26 30 30 27 24 23 23 26 30 32 34 33 32 32 31 27 25 25 24 24 24 22 21 21 22 19 14 6 1 359 356 354 357 2 6 9 7 6 7 5 357 352 351 347 335
62 43 35 39 50 51 30 5 13 21 18 18 23 27 27 17 357 347 353 358 19 52 42 25 19 13 7 4 2 3 6 10 13 15 14 13 17 24 28 27 27 30 30 29 29 28 28 30 31 30 30 31 29 29 28 27 26 24 22 22 21 19 18 19 20 20 15 8 4 1 359 359 2 2 2 3 2 2 5 7 359 350 351 359 11
53 34 29 34 41 31 8 345 350 2 12 24 31 31 29 27 21 13 7 356 352 26 45 34 25 18 12 6 358 353 355 1 11 18 18 19 22 26 30 32 34 35 35 33 32 34 34 33 31 27 24 24 26 24 22 22 23 23 22 21 19 17 16 15 14 12 10 9 8 5 2 1 1 0 0 0 360 1 4 7 3 354 351 359 15
29 20 21 31 34 14 360 344 345 6 29 41 33 25 32 38 39 35 25 6 345 346 25 38 30 22 16 12 8 358 352 358 16 31 29 32 37 31 31 38 42 43 44 41 38 39 39 37 35 30 24 23 24 22 18 18 19 20 20 20 19 17 15 12 9 5 3 5 6 5 3 1 359 360 0 357 356 359 2 5 6 2 356 354 1
6 8 18 37 41 19 5 356 358 21 52 52 24 26 38 42 43 41 30 16 1 353 11 40 35 25 15 10 12 13 10 13 29 38 30 34 40 31 30 39 44 45 47 46 43 41 41 40 37 34 31 29 28 25 21 19 19 18 18 19 19 18 14 11 8 5 2 1 2 4 5 2 358 358 359 356 353 355 359 2 5 5 359 355 355
4 16 33 50 43 19 7 8 12 30 53 38 20 26 31 30 37 42 35 26 18 8 17 48 42 33 25 14 11 15 20 27 37 42 33 32 34 26 25 35 43 45 46 49 48 45 42 41 39 36 35 33 31 28 25 23 21 19 19 18 18 16 13 10 9 9 7 3 2 2 3 3 0 357 357 355 353 352 355 358 0 360 358 357 358
12 34 49 48 27 11 359 356 2 19 30 16 5 10 14 17 30 36 32 29 26 23 43 69 52 40 35 27 19 20 25 29 35 45 45 40 37 30 24 28 38 42 43 48 50 48 45 44 41 38 36 34 31 29 28 25 22 20 21 21 18 15 13 12 13 13 11 7 4 2 1 0 359 356 355 355 355 353 353 354 355 354 354 355 355
13 39 41 20 11 4 352 345 348 3 20 14 355 357 9 20 32 34 30 25 22 30 65 79 56 43 38 33 31 33 34 32 32 43 54 49 41 35 33 36 39 38 39 46 49 48 46 45 42 39 36 34 32 29 27 25 22 21 24 25 21 18 17 17 16 14 11 9 8 5 1 359 357 354 351 351 353 353 353 354 352 350 349 350 350
345 13 9 7 10 3 345 344 359 14 27 24 4 1 16 36 49 43 36 26 24 37 75 78 52 42 36 32 35 40 39 35 35 44 56 50 37 30 38 47 43 34 32 34 36 40 42 42 42 40 35 32 30 27 25 25 26 28 30 29 25 22 20 19 17 15 13 11 8 4 1 359 358 354 349 348 348 349 350 350 349 346 344 347 349
317 333 340 350 9 12 356 348 15 35 43 43 35 33 44 59 64 51 43 37 36 56 88 82 56 47 41 35 37 39 36 35 40 48 57 51 37 32 37 42 39 33 29 26 25 31 33 33 37 40 37 32 28 25 25 29 31 33 33 30 27 24 21 18 16 14 12 11 8 5 2 0 358 356 352 347 346 345 344 344 345 345 346 346 345
322 327 331 327 337 1 14 29 47 48 47 48 53 60 65 64 59 51 46 42 44 67 103 91 60 51 46 40 38 36 30 27 35 46 54 52 41 36 36 33 29 26 22 19 22 28 30 30 36 41 39 35 30 28 31 33 31 30 29 25 24 22 19 17 15 14 12 9 7 4 2 360 358 356 352 346 343 343 343 343 342 342 342 342 340
327 332 340 329 317 333 16 63 81 59 45 45 51 58 57 51 44 39 36 33 32 50 107 103 66 52 49 45 41 38 31 24 24 33 40 41 36 33 33 33 33 32 27 24 25 28 32 36 39 39 35 31 27 30 34 33 28 25 22 19 18 18 16 15 14 12 11 8 5 3 1 358 356 356 352 346 342 341 341 341 341 339 338 339 339
331 336 346 341 324 316 20 62 55 49 49 44 41 41 38 36 32 26 17 7 1 10 93 128 75 50 49 47 38 34 34 34 32 29 30 33 36 35 34 36 41 43 41 40 39 39 39 40 37 33 30 27 25 28 32 30 25 22 18 16 15 15 15 14 12 10 8 6 3 1 358 355 354 353 351 347 342 339 337 336 338 338 335 333 333
329 336 345 345 336 217 135 38 16 25 33 23 14 8 4 3 2 3 3 356 351 353 343 187 130 40 41 41 32 30 36 41 42 35 29 33 40 40 37 40 45 46 45 45 45 42 40 36 31 28 26 23 23 27 27 21 19 17 15 15 15 15 14 12 10 7 5 2 359 357 355 353 352 351 349 346 341 337 335 334 335 336 334 330 328
324 331 343 347 319 179 188 340 342 348 349 347 344 335 326 322 318 320 330 334 342 351 346 224 211 12 31 50 38 36 40 43 43 37 32 31 34 38 41 47 51 49 45 43 41 38 36 32 29 27 23 20 21 24 18 11 13 15 14 14 14 12 11 10 7 5 2 358 355 353 351 350 349 347 345 343 339 339 341 340 338 337 335 332 329
330 332 343 342 209 221 277 290 293 318 323 322 321 313 303 299 296 296 303 307 315 335 345 228 212 295 27 119 68 42 43 46 45 42 36 29 28 32 41 49 52 46 38 34 32 30 27 26 25 22 18 18 20 18 10 8 11 12 12 12 11 10 9 7 4 2 360 357 354 351 348 348 348 345 343 342 340 341 343 342 340 340 338 336 335
331 334 344 330 224 240 267 275 280 298 307 310 311 305 296 294 291 288 289 291 293 306 314 240 215 248 199 171 136 49 38 37 39 46 43 32 20 20 33 48 51 42 31 26 23 20 18 19 20 18 17 18 16 10 6 7 8 8 8 9 8 7 6 4 2 360 357 355 352 349 347 348 346 343 343 344 341 339 339 339 340 342 340 337 338
328 327 329 306 240 247 262 273 282 292 300 303 302 299 298 297 292 288 288 286 285 288 286 256 228 201 183 184 185 41 23 29 38 45 33 19 8 12 32 48 49 37 26 19 16 13 11 12 13 14 15 14 7 2 3 6 5 4 4 5 4 4 2 0 359 358 355 352 349 345 344 344 343 342 343 343 339 336 335 336 338 339 337 337 339
319 315 306 294 273 273 279 284 286 290 296 297 294 295 298 298 297 301 302 296 291 287 275 251 228 197 187 191 197 330 28 41 49 35 27 26 23 29 42 47 38 27 20 16 12 11 9 7 9 11 12 6 359 358 2 3 2 1 1 1 1 360 358 357 356 354 351 348 344 341 338 338 339 339 338 336 334 332 331 333 335 334 333 335 339
302 315 306 295 293 297 300 299 295 291 290 291 291 293 296 301 311 320 319 312 306 296 272 245 226 207 201 200 194 135 62 58 51 38 38 39 37 37 40 34 22 16 14 11 9 8 8 8 9 10 7 357 352 356 360 359 357 357 357 358 358 357 355 354 351 348 346 343 339 336 334 332 334 336 335 335 336 334 331 333 335 333 332 335 338
289 310 309 296 292 297 303 305 302 294 289 288 289 291 298 308 319 322 315 312 313 302 272 244 228 215 206 199 181 140 91 65 60 45 39 38 38 37 33 24 18 13 9 7 8 10 10 10 9 6 360 351 348 352 354 353 353 353 353 354 354 352 350 348 345 343 340 337 334 334 333 331 333 338 341 342 342 339 335 334 333 330 331 336 338
287 303 305 298 293 296 300 304 303 299 296 292 289 291 304 316 320 316 309 310 314 302 271 243 227 214 202 189 172 148 117 106 97 58 50 51 50 39 25 17 13 8 4 6 12 14 13 8 2 358 355 350 347 348 349 349 351 353 352 351 350 347 345 343 341 339 336 333 333 336 337 337 340 344 343 341 341 340 336 332 328 326 330 336 337
297 306 304 297 295 297 300 303 303 303 302 299 294 297 308 317 318 313 310 313 313 300 277 251 227 209 196 182 168 151 134 138 138 96 86 88 54 24 12 6 5 5 8 12 14 13 8 1 357 356 355 349 345 346 349 351 354 354 351 348 346 343 341 341 341 340 338 337 340 345 347 347 350 351 348 345 344 341 336 329 325 326 332 335 334
307 305 301 299 300 302 304 306 307 308 309 307 303 303 306 311 314 313 312 313 310 302 288 262 226 205 192 179 168 159 156 166 174 162 142 105 31 15 8 3 4 11 15 11 7 2 356 353 355 356 352 346 345 346 350 354 356 353 349 346 344 341 341 345 351 353 354 354 357 2 4 1 359 356 352 348 345 341 336 332 329 328 329 330 332
309 305 305 306 306 306 307 309 310 312 314 313 311 309 306 305 308 313 316 312 305 300 292 263 219 196 183 173 167 173 179 178 178 176 168 106 23 15 11 8 10 14 13 7 2 357 353 353 356 355 349 344 344 345 347 350 351 348 346 344 341 340 346 358 6 7 8 11 13 15 16 10 1 354 348 344 341 338 335 333 331 328 326 328 334
Height
831 830 829 828 828 827 827 825 824 823 821 820 819 818 817 815 814 813 811 809 808 805 804 802 800 799 797 796 794 793 791 790 788 787 785 784 782 781 780 779 778 777 776 775 773 773 772 770 770 769 768 767 766 766 766 766 765 764 764 764 763 763 764 764 763 759 756 756 757 756 757 758 757 756 756 757 758 759 759 760 761 762 763 764 766
831 831 830 829 829 827 827 825 823 822 821 820 819 818 817 815 814 812 810 809 807 805 803 801 800 798 796 795 794 792 791 789 788 786 785 784 782 781 780 779 778 776 775 774 773 772 771 770 769 768 768 767 766 765 765 765 764 762 762 763 762 762 762 761 760 757 754 754 755 756 756 756 755 754 754 755 755 756 757 757 758 758 759 760 761
832 831 831 830 829 828 827 825 824 822 821 820 819 818 816 815 813 811 809 808 806 804 803 801 800 798 796 795 793 792 791 789 787 786 784 784 782 781 780 779 778 776 775 774 773 772 771 770 769 768 767 766 765 765 764 764 762 761 760 761 760 759 759 759 758 756 755 753 753 754 754 754 753 753 753 753 753 754 754 754 755 755 755 756 757
832 832 831 830 829 828 827 825 824 822 821 820 819 818 816 814 812 811 809 807 805 804 802 800 799 797 795 794 793 791 790 788 787 786 785 784 782 781 780 779 778 776 775 774 773 772 770 769 768 767 766 765 764 763 763 762 761 760 759 759 758 757 756 756 755 755 754 752 752 752 752 752 752 752 752 752 751 751 751 752 752 752 753 753 754
833 832 831 830 829 828 827 825 824 823 822 821 819 817 816 814 812 810 808 807 805 803 802 800 798 797 795 794 792 791 790 789 787 786 785 784 783 782 780 779 778 776 775 774 773 771 770 768 767 766 765 764 763 762 761 761 760 759 758 758 757 755 754 754 754 753 752 751 750 750 751 751 750 750 750 750 750 749 749 749 749 750 750 751 751
833 832 831 830 829 829 828 827 825 824 822 820 819 817 815 814 812 810 808 806 804 803 801 800 798 796 795 794 792 791 790 789 788 787 785 784 783 782 780 779 777 776 775 773 772 771 770 768 767 765 764 763 762 762 760 759 759 758 757 756 755 754 753 752 752 751 750 749 749 749 749 748 748 748 748 748 748 748 748 747 747 747 747 747 748
833 833 832 831 831 830 829 827 826 824 822 820 819 817 815 814 812 810 808 806 804 803 801 799 798 797 795 794 793 792 790 789 788 787 786 784 783 782 780 778 777 775 774 773 771 770 769 768 766 765 763 762 761 760 759 758 757 756 755 755 753 752 751 751 750 750 749 747 747 746 746 746 746 746 746 746 747 746 746 746 745 745 745 744 744
834 834 833 832 832 831 829 828 826 824 823 820 819 817 815 814 812 810 808 806 804 803 801 800 798 797 796 794 793 792 791 790 789 787 786 784 783 781 779 778 776 775 773 772 771 770 768 767 766 764 763 762 761 760 758 757 756 754 753 753 752 751 749 748 748 748 747 746 745 744 744 744 743 743 743 744 744 743 743 744 744 743 743 742 742
835 835 834 833 832 831 830 828 826 824 823 821 819 817 815 814 812 810 808 806 804 803 801 800 798 797 796 795 794 793 792 791 790 789 787 785 783 781 779 778 776 775 773 771 770 769 767 766 764 763 762 761 760 758 757 757 755 754 752 751 750 749 748 747 746 745 745 744 743 743 742 741 741 741 741 741 740 739 740 741 741 740 741 740 740
835 835 834 834 833 831 830 828 827 825 823 821 820 818 816 814 812 810 808 806 805 803 802 800 799 798 797 796 795 794 793 792 791 790 788 786 784 781 779 777 776 775 773 771 769 768 767 765 763 762 761 760 759 757 756 756 754 753 751 750 749 748 747 746 745 744 743 742 741 741 740 739 739 739 739 738 738 738 738 739 738 738 739 739 737
836 835 834 834 833 831 830 828 827 825 824 822 821 819 817 814 812 811 809 807 806 804 803 801 800 799 798 797 796 795 794 794 792 790 788 786 784 782 780 778 776 775 773 771 769 768 766 764 763 761 760 759 758 757 755 754 753 752 751 749 748 747 746 745 744 743 743 741 740 740 738 737 737 738 738 737 737 737 737 737 737 737 737 737 735
836 835 834 833 832 831 830 828 827 825 824 822 821 819 817 815 813 811 809 808 807 805 804 803 802 801 799 798 797 796 796 795 792 790 788 786 784 782 780 778 776 774 773 771 769 768 765 764 762 761 760 759 757 756 754 753 752 751 750 748 747 746 745 744 742 741 741 740 739 738 737 736 736 736 736 735 735 735 735 736 736 735 735 734 733
835 835 833 833 831 830 829 828 826 825 823 822 821 819 817 815 813 812 810 809 808 806 805 804 803 802 800 799 798 797 796 795 793 791 788 786 784 782 779 778 776 774 772 770 769 767 765 764 762 760 759 758 757 755 753 752 750 749 748 747 746 745 744 742 741 740 739 738 737 736 736 736 735 734 734 733 733 733 733 733 733 733 732 732 731
835 834 833 832 831 830 829 827 826 825 823 822 820 818 817 816 814 813 811 810 809 807 806 805 804 803 801 800 800 798 797 796 793 791 789 786 784 781 779 777 775 774 772 770 769 767 765 764 762 760 759 758 756 754 752 750 749 747 746 745 744 743 742 741 740 739 737 736 736 735 734 734 733 732 732 732 731 731 730 730 730 731 732 731 730
835 834 833 832 830 829 828 827 826 824 823 822 820 819 818 816 815 814 812 811 810 809 808 806 805 804 803 801 800 799 798 796 793 791 789 786 784 782 779 777 775 774 772 770 769 767 765 764 762 761 759 758 756 754 752 750 748 746 745 743 742 741 740 740 739 737 736 735 734 733 733 732 731 730 731 730 729 729 728 728 729 731 731 730 728
835 834 832 831 830 829 828 827 825 824 823 822 820 819 819 817 816 815 814 812 811 810 808 807 806 805 804 803 801 800 798 796 794 792 789 786 784 782 779 777 776 773 771 770 768 767 765 764 762 761 760 758 755 753 752 750 748 745 743 741 740 739 738 738 737 736 735 734 733 732 731 730 730 729 729 729 728 727 727 727 728 729 729 727 725
835 834 832 831 830 829 828 827 826 825 824 822 821 820 819 818 817 816 814 813 812 810 809 808 807 806 805 803 802 800 799 797 795 793 790 787 784 782 780 778 776 774 771 769 768 767 766 764 763 762 760 757 755 752 750 749 746 744 742 740 739 737 735 735 734 734 733 732 731 730 729 728 728 727 726 726 726 726 726 725 724 725 725 724 723
835 834 832 831 830 829 828 827 826 825 824 823 822 821 820 819 818 816 815 814 812 811 810 808 808 806 805 804 802 801 799 798 796 793 790 788 785 783 780 778 776 774 771 769 768 767 765 764 763 762 760 757 754 750 748 747 745 744 742 740 738 736 734 732 731 730 730 729 728 728 727 726 726 725 724 723 723 723 723 722 722 722 722 722 720
835 834 833 831 830 829 828 827 826 825 825 824 823 822 820 820 818 817 816 814 813 812 810 809 808 807 805 804 803 801 800 798 796 794 791 789 786 784 781 779 776 774 772 770 769 767 765 764 763 762 760 757 754 751 748 747 745 744 742 741 739 737 734 732 730 729 728 727 726 725 725 724 724 722 722 721 720 720 720 720 720 720 720 720 719
835 834 833 831 830 829 828 827 827 826 825 824 823 823 821 820 819 817 816 815 814 812 811 810 808 807 806 805 803 801 800 798 796 794 792 789 787 784 782 780 777 775 773 771 769 767 766 764 763 761 760 757 755 752 749 747 746 744 742 741 740 737 734 732 730 728 727 726 725 724 723 722 722 721 720 719 718 717 717 717 717 717 717 717 717
835 834 833 831 831 829 827 827 826 826 826 825 824 823 822 821 820 818 817 815 814 813 812 810 809 808 806 805 803 802 800 799 797 795 792 790 788 785 783 780 778 776 773 771 770 768 766 765 763 762 760 757 755 753 750 748 746 744 742 742 740 737 734 732 730 728 727 725 724 723 722 722 721 720 719 718 717 716 715 715 714 714 714 714 713
835 834 833 832 831 829 828 827 826 826 826 825 824 823 822 821 820 818 817 816 814 813 812 811 809 808 807 805 804 802 801 799 797 795 793 790 788 786 783 781 779 777 774 772 770 768 767 766 764 762 760 758 756 753 751 749 746 744 743 742 739 736 734 733 731 729 727 725 724 723 722 721 720 719 718 717 716 715 714 713 712 711 711 710 710
835 834 833 833 831 830 828 827 827 827 826 825 824 823 822 821 820 818 817 816 815 814 813 811 810 808 807 806 804 802 801 799 797 795 793 791 789 786 784 782 779 777 775 773 771 769 768 767 765 763 760 758 756 754 752 749 747 746 744 741 739 736 734 732 731 730 728 727 725 724 723 722 721 720 718 717 715 714 713 712 710 709 708 707 707
835 834 834 833 831 830 829 828 828 827 826 825 824 823 822 821 820 819 818 816 815 814 813 811 810 808 807 806 804 802 801 799 798 796 794 792 790 787 785 782 779 777 775 774 772 771 769 768 766 764 761 759 757 755 753 751 749 748 745 742 740 737 735 734 733 731 730 728 727 726 725 724 722 721 719 717 715 713 711 710 709 708 706 705 704
835 834 834 833 831 831 830 829 828 827 826 825 824 822 822 821 820 819 818 817 816 815 814 812 810 809 808 806 804 803 801 799 798 796 794 793 790 788 785 783 780 778 776 775 773 772 770 769 767 764 762 760 758 756 754 753 751 749 746 744 742 740 738 737 735 733 732 731 730 728 726 725 723 722 720 718 715 712 710 709 708 707 705 704 702
835 834 834 833 832 831 830 829 828 827 825 825 824 822 822 820 820 819 818 817 816 815 814 813 811 809 808 806 804 803 801 799 798 796 795 793 791 789 786 783 781 779 777 776 775 773 771 769 767 766 764 762 760 758 756 755 753 750 748 746 744 742 741 739 737 736 735 733 732 730 728 726 724 722 720 717 715 713 712 710 708 706 705 703 701
835 834 833 833 832 831 830 829 828 827 826 825 824 822 821 820 819 818 817 817 816 815 814 812 811 810 808 806 805 803 801 799 798 796 795 793 791 790 787 784 782 780 778 777 775 773 772 770 769 767 766 764 762 760 758 757 754 752 751 749 747 745 744 742 740 739 737 736 734 732 730 728 725 722 720 718 717 716 714 712 710 707 705 703 701
835 834 833 833 832 831 830 829 828 827 826 825 823 822 821 820 819 818 817 816 815 815 814 812 811 809 808 806 805 803 801 799 797 796 795 793 792 790 788 785 783 780 779 778 776 775 773 772 770 768 767 765 763 762 760 759 757 755 753 751 749 747 745 743 741 740 738 737 735 733 731 728 725 723 721 720 718 717 714 712 711 709 706 703 701
835 834 833 832 832 831 830 829 828 827 826 825 823 822 820 819 819 817 817 816 815 814 814 812 811 810 808 807 805 803 801 799 798 796 795 794 792 791 789 786 785 782 781 780 778 776 774 772 770 769 767 766 765 763 762 761 759 757 756 754 752 749 747 744 742 741 739 737 735 734 732 729 727 725 723 721 719 717 715 713 712 710 708 705 702
834 834 832 831 831 831 830 829 828 827 826 824 823 822 820 820 818 817 816 815 814 814 813 812 811 810 808 807 805 803 802 800 798 797 796 795 793 792 790 788 786 784 783 781 779 777 775 773 772 770 769 768 767 766 765 763 762 760 758 756 754 752 750 748 746 743 741 739 737 736 734 731 729 727 725 722 720 718 716 714 713 711 710 707 704
834 833 832 831 831 830 829 828 827 826 825 824 823 822 821 820 818 817 816 815 814 813 813 812 811 810 809 807 805 803 802 800 799 798 796 795 794 792 791 789 788 786 784 782 780 778 776 775 774 773 771 770 769 768 767 765 764 763 761 759 757 755 753 751 748 746 744 741 739 738 736 733 731 729 726 724 722 719 717 715 713 711 711 709 707
834 832 832 831 831 830 829 828 827 826 825 824 823 822 821 820 819 817 816 815 814 813 812 812 811 810 809 807 805 803 802 800 799 798 796 795 794 793 791 790 788 787 785 783 781 779 778 777 776 775 773 772 771 770 769 767 766 765 763 761 759 757 755 753 751 749 746 744 742 740 738 736 734 731 729 726 724 721 718 716 713 712 711 710 708
834 833 832 831 830 829 828 827 827 826 825 824 823 822 821 820 819 818 817 815 814 813 812 812 811 810 809 807 806 804 802 800 799 798 796 796 794 793 791 790 789 788 786 784 782 781 780 779 778 776 775 774 773 772 770 769 767 766 765 763 762 760 758 756 753 750 748 746 744 742 740 738 736 733 731 729 726 723 720 718 716 714 712 710 709
834 833 832 831 830 829 828 827 826 826 825 824 823 821 821 820 819 818 817 816 814 813 812 812 811 810 809 807 806 804 803 801 799 798 797 796 795 793 791 790 789 788 786 785 783 782 781 780 779 778 777 776 774 773 771 770 769 767 766 765 763 761 759 757 754 752 750 748 746 744 742 740 738 735 733 731 728 725 723 720 718 716 714 712 710
833 833 832 831 830 828 827 827 826 826 824 823 822 821 821 820 819 818 817 816 814 813 813 812 812 810 809 807 806 805 803 802 800 798 797 796 795 794 792 790 789 788 787 785 784 783 781 780 779 778 777 776 775 774 773 771 770 769 767 766 764 762 760 757 755 753 751 749 747 745 744 742 740 737 735 733 730 728 725 723 721 718 715 713 711
833 832 831 830 829 828 827 826 826 826 824 822 822 821 820 819 819 818 817 816 815 814 813 812 811 810 809 808 806 805 804 802 800 798 797 797 796 794 792 791 790 788 787 786 784 783 782 781 780 779 778 777 776 775 773 772 771 770 768 767 765 763 761 759 757 755 753 751 749 746 744 742 740 738 736 734 731 729 727 724 722 720 717 715 713
832 832 831 830 829 828 827 826 826 825 824 822 821 821 820 819 819 818 817 816 814 813 813 812 811 810 809 808 807 805 804 802 801 799 798 797 796 795 793 792 790 789 787 786 785 784 783 782 781 780 778 777 776 775 774 773 772 770 769 767 766 764 763 761 759 757 754 752 750 747 745 743 741 739 737 735 733 730 728 726 723 721 719 717 714
832 831 830 829 828 828 828 826 825 824 823 822 821 821 820 819 818 817 816 815 814 813 812 812 811 810 809 807 806 805 803 802 801 799 798 798 797 795 794 792 791 789 788 786 786 785 784 783 782 781 779 778 777 775 774 773 772 771 769 768 766 765 763 761 759 757 755 753 750 748 746 744 742 740 738 736 734 731 729 727 725 722 720 717 715
830 830 830 828 827 827 827 826 825 824 823 822 821 820 819 818 817 816 815 814 813 812 812 811 810 809 808 807 806 804 803 801 800 799 798 798 797 795 794 793 791 790 788 787 786 785 785 784 783 781 780 779 777 776 775 773 772 771 769 768 766 765 763 761 759 757 755 753 751 749 747 744 742 740 739 737 735 733 730 728 726 724 721 719 717
829 829 829 827 827 827 826 825 824 823 822 821 820 819 818 817 816 815 814 813 812 811 810 810 809 808 807 806 805 804 802 801 800 799 798 797 796 795 794 793 792 791 789 788 787 786 785 784 783 782 781 779 778 776 775 774 772 771 769 768 766 765 763 761 759 757 755 753 751 749 746 744 742 740 738 736 735 733 731 729 727 725 723 720 718
828 828 827 826 826 826 824 824 823 822 821 820 819 818 817 816 815 814 813 812 811 810 809 808 808 807 806 805 805 803 802 801 800 799 798 797 796 795 794 793 792 791 790 789 788 787 785 784 783 782 781 779 778 777 775 774 772 771 769 768 766 765 763 761 759 757 755 753 750 748 746 744 742 740 738 736 734 732 730 728 726 724 722 720 718
827 827 826 825 826 825 823 822 821 820 820 819 817 816 816 815 814 813 812 810 810 809 808 807 807 806 805 805 804 803 802 801 800 799 798 797 796 795 793 792 792 791 790 789 788 787 786 784 783 782 780 779 778 776 775 774 772 771 769 768 766 764 762 760 758 756 754 752 749 747 745 743 741 739 737 736 734 732 729 728 726 723 721 719 717
826 825 824 824 824 823 822 821 820 819 818 817 816 815 814 813 812 811 810 809 808 807 806 806 805 805 804 804 803 802 801 800 800 799 798 797 796 794 793 792 791 791 790 789 788 787 786 784 783 782 780 779 777 776 775 774 772 771 769 768 766 764 762 760 758 756 753 751 749 746 744 742 740 738 736 734 733 731 730 728 725 723 721 718 716
824 823 823 823 822 822 821 820 819 818 816 815 814 813 812 811 810 809 808 807 806 805 805 805 804 803 803 802 802 801 801 800 799 798 797 796 795 794 793 792 791 791 790 789 788 787 785 784 783 782 780 779 777 776 775 774 772 771 769 767 766 764 762 759 757 755 752 750 748 746 744 741 739 737 735 733 732 731 729 727 725 723 721 719 717
823 822 822 822 821 821 820 819 817 816 815 813 812 811 810 810 808 807 806 805 804 803 803 803 802 802 802 801 801 800 800 799 799 798 797 796 795 794 793 792 791 791 790 788 787 786 785 784 783 781 780 779 777 776 775 773 772 771 769 767 765 763 761 759 757 754 752 750 748 746 743 741 739 737 735 733 732 730 728 727 725 723 721 719 718
822 821 820 820 819 819 818 817 816 814 813 812 811 810 809 808 807 806 805 804 802 801 801 801 801 801 800 800 800 799 799 799 798 798 797 796 795 794 793 792 791 790 789 788 787 786 785 784 783 781 780 779 777 776 775 773 772 770 769 767 765 763 760 758 756 754 752 750 747 745 743 741 739 737 735 733 732 730 728 726 724 723 721 720 718
820 820 819 818 817 817 816 814 813 812 811 810 809 808 808 807 806 805 803 802 800 799 799 799 799 799 799 799 799 799 798 798 798 797 796 796 795 794 793 792 791 790 789 788 787 786 784 783 782 781 780 779 777 776 775 773 772 770 768 766 764 762 760 758 755 753 751 749 746 744 742 740 738 737 735 733 731 730 728 726 724 722 721 720 718
819 818 818 817 816 815 814 812 811 810 809 808 808 807 806 805 804 803 801 800 798 797 797 797 798 798 797 798 798 798 797 797 797 796 796 795 794 793 793 791 790 790 788 787 786 785 784 783 782 780 779 778 777 776 775 773 771 770 768 766 764 762 759 756 754 751 748 746 744 742 741 740 738 736 735 733 731 729 727 725 723 722 721 719 717
818 817 816 815 814 813 812 810 809 808 807 807 806 806 805 804 803 801 799 798 797 796 796 796 796 796 796 797 797 797 796 796 796 795 795 794 793 792 792 790 790 789 788 787 786 785 783 782 781 780 779 778 776 775 774 772 770 769 767 765 763 760 758 755 752 749 746 744 742 741 740 738 737 736 734 733 731 729 727 726 724 722 721 719 717
816 815 815 814 813 811 810 809 808 806 806 805 805 804 803 802 801 799 798 797 795 795 795 795 795 795 795 795 796 796 795 795 795 794 794 793 792 791 791 790 789 788 787 786 785 784 783 782 780 779 778 777 775 774 772 771 769 768 766 764 762 759 756 753 750 748 745 743 741 740 739 738 736 735 734 732 731 729 728 726 724 722 721 719 717
815 814 813 812 811 809 808 807 806 805 804 804 803 802 801 800 799 798 797 795 794 794 794 794 794 794 794 795 795 794 794 794 794 793 793 792 792 791 790 789 788 787 787 786 784 783 782 781 779 778 777 776 774 773 772 770 769 767 765 763 760 758 755 752 750 747 745 743 742 740 739 738 736 735 734 733 731 730 728 726 725 722 721 719 717